Regional Weather Roundup
Issued by NWS Newport/Morehead, NC

Current Version | Previous Version | Text Only | Print | Product List | Glossary Off
Versions: 1 2 3 4 5 6 7 8 9 10 11 12 13 14 15 16 17 18 19 20 21 22 23 24 25 26 27 28 29 30 31 32 33 34 35 36 37 38 39 40 41 42 43 44 45 46 47 48 49 50
000 ASUS42 KMHX 271625 RWRMHX WEATHER ROUNDUP FOR EASTERN NORTH CAROLINA NATIONAL WEATHER SERVICE NEWPORT/MOREHEAD CITY NC 1200 PM EDT THU AUG 27 2015 NOTE: "FAIR" INDICATES FEW OR NO CLOUDS BELOW 12,000 FEET WITH NO SIGNIFICANT WEATHER AND/OR OBSTRUCTIONS TO VISIBILITY NCZ015>017-031-032-045>047-102-103-271700- NORTH COAST CITY SKY/WX TMP DP RH WIND PRES REMARKS EDENTON HVY RAIN 72 66 82 N5 30.10S ELIZABETH CITY CLOUDY 80 64 58 NE18 30.09S KITTY HAWK CLOUDY 81 66 60 NE8 30.07R MANTEO CLOUDY 77 67 70 NE14G21 30.08R $$ NCZ045>047-081-094-103-104-271700- CENTRAL COAST CITY SKY/WX TMP DP RH WIND PRES REMARKS FRISCO CLOUDY 76 71 85 NE8 30.04R SWANQUARTER NOT AVBL $$ NCZ095-097-098-100-101-271700- SOUTHERN COAST CITY SKY/WX TMP DP RH WIND PRES REMARKS BEAUFORT LGT RAIN 75 75 100 NE8 30.02F CEDAR ISLAND NOT AVBL JACKSONVILLE CLOUDY 76 69 79 NE12 30.05R PINEY ISLAND CLOUDY N/A N/A N/A NE16 30.03S WILMINGTON CLOUDY 78 71 79 N7 30.03F $$ NCZ011>013-027>030-043-044-078>080-089-090>093-098-271700- COASTAL PLAIN CITY SKY/WX TMP DP RH WIND PRES REMARKS AHOSKIE CLOUDY 75 60 59 N8 30.10F CLINTON CLOUDY 79 68 69 NE10G17 30.06F ELIZABETHTOWN CLOUDY 78 67 68 E6 30.05F GOLDSBORO CLOUDY 75 65 70 NE15G22 30.06S GREENVILLE LGT RAIN 72 68 88 NE6 30.10S HAVELOCK CLOUDY 77 73 87 NE13 30.05S KENANSVILLE CLOUDY 75 66 73 NE6 30.07S KINSTON CLOUDY 75 68 78 NE10 30.08R NEW BERN CLOUDY 74 69 85 NE9 30.06S RICHLANDS CLOUDY 73 66 78 NE6 30.05S ROCKY MOUNT PTSUNNY 79 61 53 NE10G18 30.10F WASHINGTON LGT RAIN 71 67 88 NE12G18 30.06F WHITEVILLE CLOUDY 75 70 82 NE6 30.04F $$ AMZ130-135-150-152-154-156-158-170-250-252-270-ANZ085-086-088-633-658-670-271700- MARINE OBSERVATIONS STATION/POSITION TIME TEMP WIND PRES WAVE SWELL AIR SEA DIR/SP/G HT/PER HT/PER (UTC) (F) (DEG/KT/KT) (MB) (FT/S) (FT/S) CHESAPEAKE LIGHT 1600 75 30/ 14/ 15 1019.9 64 E VA BEACH 1550 77 80 40/ 16/ 17 1018.2 4/10 2/10 DUCK 1600 77 79 40/ 19/ 21 1017.9 2 E DUCK 1611 78 N/A 5/ 5 2/12 OREGON INLET 1600 78 79 40/ 13/ 19 1018.0 13E OREGON INLT 1600 80 N/A 5/ 5 2/11 HATTERAS CG 1600 76 81 50/ 14/ 20 1016.8 DIAMOND BUOY 1550 78 82 50/ 17/ 19 1016.5 5/10 3/10 CAPE LOOKOUT 1600 80 40/ 13/ 15 1016.6 BEAUFORT LAB 1600 75 81 360/ 10/ 15 1016.4 30 SE NEW RVR IN NOT AVBL 30 SE NEW RVR IN 1525 82 N/A 3/10 2/11 27 SE WRIGHTSVLE 1600 77 82 60/ 10/ 12 N/A 5 SE WRIGHTSVLE 1508 78 83 50/ 12/ 17 1017.0 225 S CAPE HAT 1550 78 84 60/ 10/ 12 1017.9 3/ 9 3/ 9 41 SE CHARLESTON 1550 81 84 110/ 8/ 8 1015.3 4/10 3/10 $$

USA.gov is the U.S. government's official web portal to all federal, state and local government web resources and services.